Location: Stuart
(27.1975°N, 80.2528°W)
Time: 05:50:52
(UTC-04:00)

LightSail 2 - Visible Passes

Search period start: 08 April 2020 00:00
Search period end: 18 April 2020 00:00
Orbit: 694 x 724 km, 24.0° (Epoch: 07 April)

Date Brightness Start Highest point End Pass type
(mag) Time Alt. Az. Time Alt. Az. Time Alt. Az.
08 Apr 5.4 05:30:38 42° SSW 05:31:46 51° S 05:36:40 10° E visible
09 Apr 6.8 04:34:55 26° ESE 04:34:55 26° ESE 04:37:20 10° E visible
09 Apr 5.3 06:13:48 16° WSW 06:17:48 61° S 06:22:46 10° E visible
10 Apr 5.1 05:18:05 56° SSW 05:18:33 59° S 05:23:30 10° E visible
11 Apr 7.1 04:22:22 22° ESE 04:22:22 22° ESE 04:24:13 10° E visible
11 Apr 5.3 06:01:14 20° WSW 06:04:34 59° S 06:09:31 10° ESE visible
12 Apr 5.2 05:05:33 60° SSE 05:05:33 60° SSE 05:10:16 10° E visible
13 Apr 7.5 04:09:53 17° E 04:09:53 17° E 04:11:00 10° E visible
13 Apr 5.4 05:48:46 26° WSW 05:51:17 51° S 05:56:10 10° ESE visible
14 Apr 5.7 04:53:09 45° SE 04:53:09 45° SE 04:56:57 10° ESE visible
15 Apr 7.9 03:57:35 11° ESE 03:57:35 11° ESE 03:57:41 10° ESE visible
15 Apr 5.6 05:36:28 32° SW 05:37:55 40° SSW 05:42:38 10° SE visible
16 Apr 6.6 04:40:59 28° SE 04:40:59 28° SE 04:43:30 10° ESE visible
16 Apr 6.4 06:19:53 10° WSW 06:23:44 23° SSW 06:27:40 10° SSE visible
17 Apr 6.0 05:24:29 30° SSW 05:24:30 30° SSW 05:28:52 10° SE visible
